User: anonymous   Login
Location: Unspecified
(0.0000°N, 0.0000°E)
Time: 08:57:02
(UTC+00:00)
Language:

Explorer 27 - Orbit

View from above orbital plane
View from above orbital plane
View from above satellite
View from above satellite

Ground track
Ground track

The orbit data is extracted from the following two-line orbital elements,

1  1328U 65032A   17204.87439484 -.00000066 +00000-0 +23559-4 0  9992
2  1328 041.1844 240.7030 0249454 319.9523 038.3074 13.38532527552741
Epoch (UTC): 23 July 2017 20:59:07
Eccentricity: 0.0249454
inclination: 41.1844°
perigee height: 928 km
apogee height: 1301 km
right ascension of ascending node: 240.7030°
argument of perigee: 319.9523°
revolutions per day: 13.38532527
mean anomaly at epoch: 38.3074°
orbit number at epoch: 55274

The dashed part of the orbit path shows where the satellite is in the earth's shadow,  

DLR